sat.trackr.live / text

‹ back to catalog

QIANFAN-145

NORAD 69104 · 2026-108A

PAYLOAD ACTIVE UNKNOWN

§ Identity

Operator
Country
PRC
Launch date
2026-05-17
Launch site
WSC
Launch vehicle
Mass (kg)
RCS (m²)

External: N2YO · Heavens-Above · Gunter

§ Orbital elements

Epoch: 2026-09-19T20:38:09.800160Z

Period
106.90 min
Inclination
89.0189°
Eccentricity
0.0004051
Mean motion
13.47050109 rev/d
Perigee alt
1,080.1 km
Apogee alt
1,086.2 km
Semi-major
7,461.3 km
B*
-3.0950e+0
RAAN
12.5973°
Arg perigee
67.5619°
Mean anomaly
292.5958°
Rev number
1,722

§ Raw data

QIANFAN-1451 69104U 26108A   26262.85983565 -.01759069  00000+0 -30950+1 0  99992 69104  89.0189  12.5973 0004051  67.5619 292.5958 13.47050109 17220

JSON: /api/v1/satellites/69104 · /tle

For live sub-satellite position, see the globe view (requires WebGL).

§ Visibility from observer

Set your observer location to see the next 7 days of passes ≥ 10°. The values pass through the URL so the page stays shareable.

No JS? Fill the form by hand. The geolocation button needs JavaScript.